Regional Weather Roundup
Issued by NWS Upton, NY

Home | Current Version | Previous Version | Text Only | Print | Product List | Glossary On
Versions: 1 2 3 4 5 6 7 8 9 10 11 12 13 14 15 16 17 18 19 20 21 22 23 24 25 26 27 28 29 30 31 32 33 34 35 36 37 38 39 40 41 42 43 44 45 46 47 48 49 50
000
ASUS41 KOKX 301605
RWROKX

REGIONAL WEATHER ROUNDUP
NATIONAL WEATHER SERVICE NEW YORK NY
1200 PM EDT TUE SEP 30 2014

NOTE: "FAIR" INDICATES FEW OR NO CLOUDS BELOW 12,000 FEET WITH NO
SIGNIFICANT WEATHER AND/OR OBSTRUCTIONS TO VISIBILITY.

NYZ071-072-176-178-NJZ106-104-301700-
NEW YORK CITY METRO AREA


CITY           SKY/WX    TMP DP  RH WIND       PRES   REMARKS
CENTRAL PARK   CLOUDY    68  57  68 NE7       29.99R
LAGUARDIA APRT CLOUDY    68  60  75 NE15G25   29.95S
KENNEDY INTL   CLOUDY    68  61  78 E8        29.96S
NEWARK/LIBERTY PTSUNNY   71  57  61 NE6       29.95S
BRNX BOT. GARD   N/A     64  61  88 NE7       29.99R
TETERBORO      CLOUDY    68  59  73 E6        29.95R
$$

NYZ177-179-078>081-301700-
LONG ISLAND NEW YORK

CITY           SKY/WX    TMP DP  RH WIND       PRES   REMARKS
FARMINGDALE    CLOUDY    66  60  81 E9        29.97R
ISLIP          LGT RAIN  64  60  87 NE7       29.95S
SHIRLEY        CLOUDY    63  60  90 E5        29.98F
WESTHAMPTON    CLOUDY    63  60  90 VRB5      29.99S
MONTAUK POINT    N/A     62  59  90 NE9       30.00F
$$

NYZ052-065-067-301700-
HUDSON VALLEY

CITY           SKY/WX    TMP DP  RH WIND       PRES   REMARKS
WHITE PLAINS     N/A     63  59  87 E7        29.97S FOG
NEWBURGH       PTSUNNY   70  63  78 E14       29.97F
MONTGOMERY     CLOUDY    70  61  73 NE8       29.94F
POUGHKEEPSIE   MOSUNNY   71  59  65 E8        29.95F
ALBANY         PTSUNNY   69  57  65 VRB7      29.96F
$$

NJZ001-105-106-008-010-013-015-019>022-104-301700-
NEW JERSEY

CITY           SKY/WX    TMP DP  RH WIND       PRES   REMARKS
NEWARK/LIBERTY PTSUNNY   71  57  61 NE6       29.95S
TETERBORO      CLOUDY    68  59  73 E6        29.95R
CALDWELL       CLOUDY    69  59  70 E8        29.95F
MORRISTOWN     PTSUNNY   73  52  46 SE7       29.95F
SOMERVILLE     SUNNY     75  52  44 CALM      29.92F
LINDEN         CLOUDY    76  54  46 E3        29.96S
SUSSEX         MOSUNNY   74  55  51 CALM      29.94F
ANDOVER          N/A     74  49  41 VRB5      29.95F
TRENTON        SUNNY     73  53  49 S5        29.94S
MILLVILLE      MOSUNNY   72  58  61 SE6       29.93F
ATLANTIC CITY  SUNNY     74  53  48 E6        29.94S
WRIGHTSTOWN    MOSUNNY   73  56  54 E8        29.92F
TOMS RIVER     PTSUNNY   70  55  60 CALM      29.95S
BELMAR         PTSUNNY   70  54  56 NE7       29.95S
$$

PAZ047>061-062-071-301700-
EASTERN PENNSYLVANIA

CITY           SKY/WX    TMP DP  RH WIND       PRES   REMARKS
PHILADELPHIA   MOSUNNY   76  57  51 VRB5      29.94S
ALLENTOWN      CLOUDY    71  58  63 CALM      29.95S
SCRANTON       MOSUNNY   72  58  61 VRB5      29.93F
$$

CTZ002-004>006-009-010-012-RIZ004-006-007-MAZ004-011-015-301700-
SOUTHERN NEW ENGLAND
 IN CT

CITY           SKY/WX    TMP DP  RH WIND       PRES   REMARKS
BRADLEY INTL   CLOUDY    61  54  77 N8        30.00F
HARTFORD       CLOUDY    61  55  81 N8        30.00S
DANBURY        CLOUDY    61  57  87 NE7       30.00F
WTRBRY/OXFORD  CLOUDY    57  54  88 NE7       30.01F FOG
BRIDGEPORT     CLOUDY    63  58  83 E9        29.98F
MERIDEN        CLOUDY    60  55  83 NE6       29.99F
NEW HAVEN      CLOUDY    64  57  78 NE7       29.98F
CHESTER        CLOUDY    61  57  88 NE6       29.99F
GROTON         CLOUDY    60  58  92 NE7       29.99S
WILLIMANTIC    LGT RAIN  60  55  83 NE7       30.01S

 IN RI

CITY           SKY/WX    TMP DP  RH WIND       PRES   REMARKS
PROVIDENCE     LGT RAIN  58  56  93 NE10      30.02S
BLOCK ISLAND   CLOUDY    61  55  82 NE10      30.00S
WESTERLY       LGT RAIN  59  57  93 NE9       29.99F

 IN MA

CITY           SKY/WX    TMP DP  RH WIND       PRES   REMARKS
BOSTON         LGT RAIN  56  55  97 N8        30.04F
WORCESTER      CLOUDY    54  53  97 VRB5      30.03S
WESTFIELD      CLOUDY    60  55  83 NE6       30.01F HAZE
PROVINCETOWN   CLOUDY    59  55  88 NE10      30.02S
NANTUCKET      CLOUDY    64  61  90 N10       29.98F
$$

ANZ330-335-338-340-345-350-353-355-301700-
COASTAL MARINE OBSERVATIONS


STATION/POSITION TIME  SKY/WX   TEMP    WIND        PRES    VSBY  WAVE
                                AIR SEA DIR/SP/G                  HT/PER
                 (UTC)          (F)     (DEG/KT/KT) (MB)    (MI)  (FT/S)
NY HARB ENTRANCE 1600            67 68   80/ 16/ 19 1014.3          2/ 7
4S FIRE IS       1600               69                N/A           4/ 5
20S FIRE ISLAND  1600            65 67   70/ 14/ 17 1013.9          3/ 4
23SW MTP         1600                                 N/A           3/ 5
HUDSON CANYON    1600            69 69   60/  8/  8 1013.0          2/ 7
EXECUTION ROCKS  1600            66 69   80/ 14/ 17   N/A
WESTERN LI SOUND 1600            64      70/ 14/ 17   N/A           2/ 4
CENTRAL LI SOUND 1500            61 69   80/ 12/ 16   N/A           2/ 4
EASTERN LI SOUND 1500            61 67   50/ 12/ 14   N/A
ROBBINS REEF     1600            70      10/  4/  5 1012.9
$$


>>>>>>>>>>>>>>>>>>>>>>>>>>>> KEY <<<<<<<<<<<<<<<<<<<<<<<<<<<
>                                                          <
>     SKY/WX - SKY CONDITION/PRESENT WEATHER               <
>     TMP    - TEMPERATURE IN FAHRENHEIT                   <
>     DP     - DEWPOINT IN FAHRENHEIT                      <
>     RH     - RELATIVE HUMIDITY IN PERCENT                <
>     WIND   - DIRECTION AND SPEED IN MPH                  <
>     PRES   - MEAN SEA LEVEL PRESSURE IN INCHES OF HG     <
>     WCI    - WIND CHILL INDEX                            <
>     VSB    - VISIBILITY IN MILES                         <
>     HX     - HEAT INDEX                                  <
>     TC     - TEMPERATURE IN CELSIUS                      <
>     VRB    - VARIABLE WIND DIRECTION                     <
>                                                          <
>>>>>>>>>>>>>>>>>>>>>>>>>>>> KEY <<<<<<<<<<<<<<<<<<<<<<<<<<<




USA.gov is the U.S. government's official web portal to all federal, state and local government web resources and services.